• Processing (Info)

  • MPEC 2019-S65 : 2019 SM2

    The following Minor Planet Electronic Circular may be linked-to from your own Web pages, but must not otherwise be redistributed electronically.

    A form allowing access to any MPEC is at the bottom of this page.


    Read MPEC 2019-S64 Read MPEC 2019-S66


    M.P.E.C. 2019-S65                            Issued 2019 September 23, 15:44 UT
    
         The Minor Planet Electronic Circulars contain information on unusual
             minor planets and routine data on comets.  They are published
        on behalf of Division F of the International Astronomical Union by the
              Minor Planet Center, Smithsonian Astrophysical Observatory,
                              Cambridge, MA 02138, U.S.A.
    
                 Prepared using the Tamkin Foundation Computer Network
    
                                  MPC@CFA.HARVARD.EDU
                URL https://www.minorplanetcenter.net/    ISSN 1523-6714
    
                                    2019 SM2                                 
    
    
    Observations:
         K19S02M  C2019 09 18.41031923 12 29.761-05 02 43.09         19.7 GVES065F51
         K19S02M  C2019 09 18.44613323 12 12.787-05 16 02.11         19.7 GVES065F51
         K19S02M* C2019 09 21.21450 23 01 36.97 -15 18 05.6          20.8 GVES065G96
         K19S02M  C2019 09 21.22004 23 01 35.97 -15 18 47.7          21.0 GVES065G96
         K19S02M  C2019 09 21.22557 23 01 34.94 -15 19 29.9          20.7 GVES065G96
         K19S02M  C2019 09 21.23112 23 01 33.90 -15 20 12.2          20.9 GVES065G96
         K19S02M  C2019 09 22.18672 22 59 40.44 -17 04 21.4          21.3 GVES065G96
         K19S02M  C2019 09 22.18747 22 59 40.35 -17 04 26.0          21.8 GVES065G96
         K19S02M  C2019 09 22.18823 22 59 40.21 -17 04 30.1          21.4 GVES065G96
         K19S02M  C2019 09 22.18898 22 59 40.08 -17 04 35.1          20.6 GVES065G96
         K19S02M  C2019 09 23.36295022 57 47.79 -18 40 02.9          22.1 GVES065H01
         K19S02M  C2019 09 23.37863322 57 46.20 -18 41 06.3          21.3 GVES065H01
         K19S02M  C2019 09 23.38428122 57 45.62 -18 41 29.2          21.1 GVES065H01
    
    Observer details:
    F51 Pan-STARRS 1, Haleakala.  Observers J. Bulger, K. Chambers, T. Lowe, E. 
       Magnier, A. Schultz, M. Willman.  Measurers S. Chastel, M. Huber, Y. 
       Ramanjooloo, R. Wainscoat, R. Weryk.  1.8-m Ritchey-Chretien + CCD.
    G96 Mt. Lemmon Survey.  Observer G. J. Leonard.  Measurers B. M. Africano, E. 
       J. Christensen, G. A. Farneth, D. C. Fuls, A. R. Gibbs, A. D. Grauer, H. 
       Groeller, R. A. Kowalski, S. M. Larson, G. J. Leonard, T. A. Pruyne, D. 
       Rankin, R. L. Seaman, F. C. Shelly.  1.5-m reflector + 10K CCD.
    H01 Magdalena Ridge Observatory, Socorro.  Observers W. H. Ryan, E. V. Ryan.  
        Measurer W. H. Ryan.  2.4-m f/8.9 Ritchey-Chretien + CCD.
    
    Orbital elements:
    2019 SM2                                                 Earth MOID = 0.0139 AU
    Epoch 2019 Apr. 27.0 TT = JDT 2458600.5                 Bell
    M 278.81747              (2000.0)            P               Q
    n   1.01588808     Peri.   51.05699     -0.69575172     +0.71787545
    a   0.9800287      Node   174.65744     -0.71275654     -0.68584151
    e   0.5504084      Incl.   15.04798     -0.08892504     -0.11948328
    P   0.97           H   26.1           G   0.15           U   8
    Residuals in seconds of arc
    190918 F51  0.0   0.1-    190921 G96  0.2-  0.3-    190923 H01  0.1-  0.2-
    190918 F51  0.0   0.2+    190922 G96  0.1+  0.3+    190923 H01  0.2+  0.1+
    190921 G96  0.0   0.1+    190922 G96  0.3+  0.0     190923 H01  0.0   0.1+
    190921 G96  0.2+  0.2+    190922 G96  0.1-  0.3+
    190921 G96  0.0   0.1-    190922 G96  0.4-  0.4-
    
    Ephemeris:
    2019 SM2                 a,e,i = 0.98, 0.55, 15                  q = 0.4406
    Date    TT    R. A. (2000) Decl.     Delta      r    Elong.  Phase     V
    2019 08 24    10 39 59.7 +30 52 39   0.2434  0.7883    20.8   153.0    31.6
    ...
    2019 09 08    10 26 25.2 +40 37 50   0.07679 0.9464    35.7   141.6    27.5
    ...
    2019 09 16    23 48 24.0 +27 19 24   0.01956 1.0225   149.5    29.9    18.9
    ...
    2019 09 22    22 59 57.5 -16 44 44   0.07634 1.0756   159.1    19.5    21.7
    2019 09 23    22 58 20.8 -18 12 16   0.08690 1.0841   156.8    21.4    22.0
    2019 09 24    22 57 06.2 -19 20 06   0.09755 1.0926   154.9    22.9    22.3
    ...
    2019 09 30    22 53 42.8 -22 46 09   0.1628  1.1412   146.6    28.9    23.7
    ...
    2019 10 08    22 54 06.3 -24 01 46   0.2527  1.2010   138.7    33.3    24.9
    ...
    2019 10 23    23 01 19.5 -23 33 51   0.4300  1.2979   126.5    38.0    26.4
    
    A. U. Tomatic                (C) Copyright 2019 MPC           M.P.E.C. 2019-S65
    


    Read MPEC 2019-S64 Read MPEC 2019-S66


    MPEC number:

    Enter an MPEC number in one of the following forms:

    • 1997-B01 (the full form)
    • J97B01 (the packed version of the full form)
    • B01 (the abbreviated form)